Theta_e
313 314 318 328 334 337 338 339 339 344 343 344 342 340 343 340 337 334 331 333 338 339 337 341 340 336 337 337 336 335 331 329
313 315 319 328 334 335 337 337 339 340 337 339 339 337 337 337 335 334 332 334 338 339 337 341 339 338 338 341 336 333 329 325
311 315 317 326 332 334 336 336 337 337 336 338 336 336 341 337 336 334 334 331 333 339 340 341 342 336 341 339 333 330 328 327
309 312 319 323 330 335 334 336 336 336 336 336 335 335 337 340 336 334 335 335 334 337 339 341 341 340 339 338 335 332 326 328
308 311 313 324 329 335 337 337 336 336 336 336 334 332 329 332 338 337 335 338 333 335 336 340 341 339 341 339 337 336 333 327
308 309 312 317 331 334 337 335 334 335 336 337 335 336 335 332 336 337 336 333 338 335 336 337 341 339 342 340 339 338 337 333
308 310 312 313 331 335 337 335 333 335 334 337 337 337 335 331 331 335 334 336 335 338 336 337 341 339 342 342 342 341 340 337
312 314 310 313 328 335 335 334 332 331 333 333 338 338 337 333 330 331 335 334 333 337 339 338 338 339 339 342 342 341 341 339
302 309 316 321 322 335 335 333 330 332 333 334 335 338 337 333 331 330 335 335 335 339 339 339 339 339 339 339 340 340 342 341
297 302 309 317 325 338 338 335 331 332 333 336 335 337 336 334 332 332 332 336 335 338 339 339 340 338 338 339 338 339 340 342
292 295 301 311 320 328 341 339 336 332 334 335 337 333 336 333 332 330 330 333 334 337 337 338 338 338 339 339 339 340 340 340
290 292 297 305 318 325 339 339 333 333 333 334 335 331 333 332 332 331 331 331 332 334 337 336 336 336 338 338 339 339 338 339
290 292 294 299 309 315 330 340 335 334 337 334 333 330 330 331 332 332 333 331 332 332 335 336 335 336 338 337 337 337 337 337
289 291 292 295 303 309 318 331 336 339 337 334 332 330 330 328 331 331 332 332 332 330 332 333 333 335 336 338 338 338 338 338
288 289 291 296 299 302 307 316 337 334 337 332 329 330 330 329 328 331 332 331 331 331 332 333 335 336 336 337 337 338 338 338
286 288 290 293 296 298 301 305 312 332 333 334 329 332 332 328 328 329 330 333 331 332 333 333 334 335 334 336 336 336 336 336
286 287 290 291 295 296 297 300 303 309 329 329 329 332 330 327 327 328 329 331 330 333 332 332 333 331 313 308 325 337 336 334
286 287 289 291 291 295 295 297 301 302 303 305 319 329 329 326 326 326 328 329 331 330 329 335 336 337 301 301 302 335 333 330
288 289 288 289 293 293 296 296 296 297 300 301 303 308 327 326 325 326 327 328 328 329 328 328 330 327 299 299 298 329 329 328
Wind_Speed
18 20 21 21 21 21 22 17 20 19 12 12 12 9 10 5 10 9 11 12 12 8 7 10 11 11 9 10 12 8 9 10
17 15 19 21 21 23 23 21 19 15 11 13 13 13 10 8 7 10 8 13 17 12 10 9 9 9 11 13 11 12 10 10
19 17 19 21 22 24 24 21 19 16 12 11 11 12 14 11 9 11 14 12 12 13 12 14 15 11 10 14 11 9 9 11
23 20 17 20 23 23 24 22 21 18 16 12 13 11 13 15 13 14 18 17 17 15 12 12 12 10 10 13 12 15 10 10
24 23 20 21 21 20 23 21 22 18 19 19 21 14 14 13 15 14 15 18 16 16 13 13 13 9 14 13 13 12 10 12
25 24 24 20 20 20 17 21 21 21 20 20 16 16 12 12 13 18 15 13 16 17 15 14 14 10 14 14 14 13 10 10
21 23 23 22 20 18 14 17 20 21 20 22 21 19 16 14 14 15 15 14 14 18 17 14 13 12 13 15 14 15 11 11
33 27 19 19 21 23 18 20 20 22 23 22 21 20 19 19 18 14 18 15 14 17 18 16 13 13 11 12 14 13 13 10
30 30 30 26 16 25 24 21 20 22 24 24 19 20 14 13 17 14 13 14 16 18 17 17 17 15 13 13 10 10 12 10
32 32 28 29 28 23 26 26 23 22 22 21 21 20 20 17 19 17 14 15 13 18 19 18 17 17 16 14 11 13 11 11
28 28 30 28 29 21 25 23 24 20 21 20 18 17 18 18 16 19 18 16 17 18 19 18 18 17 16 15 13 13 13 10
23 23 24 26 26 23 20 21 21 20 21 20 20 17 17 16 15 18 16 16 18 18 19 19 18 18 17 16 15 14 15 13
20 21 21 22 23 22 16 20 21 21 21 20 19 19 18 17 17 17 17 17 18 17 19 19 19 18 17 17 17 15 15 15
21 20 19 19 20 21 20 14 20 20 19 16 15 16 18 20 19 18 18 16 17 18 18 19 18 18 19 18 18 17 14 14
20 19 21 20 20 18 20 19 16 16 18 16 15 17 17 17 14 17 16 17 17 17 17 17 17 17 17 17 17 15 15 13
23 24 24 21 23 22 20 18 17 9 16 17 15 16 15 15 15 14 14 16 15 16 16 15 15 16 13 17 16 15 15 15
27 26 25 27 26 23 22 21 19 16 11 10 17 15 14 16 16 17 15 15 15 16 15 15 15 11 12 13 14 13 13 11
24 25 26 22 26 23 22 21 18 18 16 15 7 12 16 16 16 16 17 16 15 14 12 12 14 12 10 10 12 10 11 11
24 20 21 25 23 23 19 22 21 21 19 18 16 12 10 14 14 15 15 14 13 12 12 13 10 6 11 13 12 9 7 8
Wind_Direction
226 217 215 197 190 188 186 186 179 190 169 179 165 177 168 152 161 169 174 174 182 200 177 173 173 167 159 149 146 147 146 135
255 220 211 200 195 185 185 179 191 187 187 178 172 170 167 154 154 169 177 195 178 190 176 153 190 179 169 134 143 152 142 123
255 235 206 204 198 187 188 180 189 193 177 191 191 178 173 166 164 175 189 187 186 192 181 168 202 174 171 144 147 148 145 164
257 244 215 209 199 192 193 177 186 187 183 175 193 198 179 166 178 178 183 197 184 192 188 178 192 174 162 153 170 165 164 187
255 258 234 205 203 200 195 179 184 185 186 182 196 200 188 181 177 179 181 184 182 188 184 190 183 191 153 168 178 181 176 185
251 245 247 228 193 199 192 180 178 185 191 197 195 201 192 184 177 178 179 186 184 192 183 194 181 200 159 172 188 199 188 185
248 254 256 237 179 184 179 190 179 186 198 206 199 196 188 183 190 173 182 181 184 191 188 191 186 198 177 177 194 196 191 199
347 333 260 247 186 182 176 193 192 185 192 208 204 197 192 189 184 186 179 180 186 185 188 186 190 194 192 184 192 198 205 206
334 331 327 317 220 185 186 187 197 189 193 200 204 201 192 199 186 185 186 184 188 184 188 184 189 190 196 190 194 201 206 214
334 328 323 316 310 183 182 188 194 201 196 195 201 201 195 199 182 185 187 193 186 188 185 185 189 190 196 192 200 197 207 207
336 329 323 314 305 287 175 187 192 195 207 195 194 207 202 201 185 188 188 189 192 185 187 190 188 194 193 199 196 203 203 206
330 322 316 317 313 309 182 182 193 191 198 201 189 195 211 206 200 189 189 189 193 184 186 191 191 193 195 198 205 203 207 207
328 324 324 327 334 321 277 183 189 195 202 199 192 187 197 206 206 192 197 191 190 191 189 190 196 195 197 200 204 207 209 206
333 332 345 339 345 337 325 255 192 198 199 189 179 186 191 204 201 196 188 195 193 198 189 196 196 200 199 202 206 209 209 211
331 340 357 357 356 352 351 341 197 195 201 178 181 188 197 201 204 197 194 192 196 196 200 196 198 203 204 204 204 209 212 212
336 1 1 356 3 2 2 358 357 257 202 177 181 186 187 198 196 196 199 190 200 196 196 199 203 205 205 206 208 206 212 213
349 357 359 6 8 2 3 6 1 0 237 191 188 183 190 190 193 189 195 190 187 195 197 202 205 204 195 191 202 204 205 207
356 355 360 0 3 3 8 7 6 18 22 14 350 204 194 187 189 188 192 194 188 184 184 200 209 199 159 167 180 193 193 200
359 351 357 360 356 354 11 13 15 19 27 21 10 345 191 177 182 183 187 186 183 189 179 177 198 200 180 177 178 194 195 209